Location: Bern�tre
(50.1974°N, 2.0915°E)
Time: 15:43:07
(UTC+00:00)

NOSS 3-2 (C) - Pass Details

Date: 18 September 2020
Orbit: 795 x 1418 km, 63.4° (Epoch: 02 October)

Event Time Altitude Azimuth Distance (km) Brightness Sun altitude
Rises 20:33:06 0° 316° (NW) 3,937 8.0 -24.1°
Reaches altitude 10° 20:35:39 10° 314° (NW) 3,060 7.1 -24.4°
Maximum altitude 20:43:02 68° 234° (SW) 1,367 4.2 -25.4°
Enters shadow 20:46:12 40° 166° (SSE) 1,847 4.5 -25.8°
